This demonstration page uses our WeatherBlox Daily Observations layout. Learn more.

Left ArrowRight Arrow

Hourly Observations for May 6, 2018

Temp ( °F °C ) Dew Point ( °F °C ) Humidity (%) Winds ( mph kmh ) Pressure ( in mb ) Visibility ( mi km ) Precip ( " mm )
12:56 am 00:56 Clear 61 16.1 46 7.8 58 58 N 5 7 30.04 1017 10 16 0.00 0.00
1:56 am 01:56 Clear 56 13.3 46 7.8 70 70 NNW 7 11 30.05 1018 10 16 0.00 0.00
2:56 am 02:56 Partly Cloudy 55 12.8 45 7.2 69 69 NNW 7 11 30.05 1018 10 16 0.00 0.00
3:56 am 03:56 Mostly Clear 55 12.8 46 7.8 72 72 NW 5 7 30.07 1018 10 16 0.00 0.00
4:56 am 04:56 Clear 51 10.6 45 7.2 80 80 NW 9 15 30.07 1018 10 16 0.00 0.00
5:56 am 05:56 Clear 52 11.1 45 7.2 77 77 WNW 9 15 30.07 1018 10 16 0.00 0.00
6:56 am 06:56 Sunny 54 12.2 45 7.2 72 72 NW 8 13 30.09 1019 10 16 0.00 0.00
7:56 am 07:56 Sunny 57 13.9 47 8.3 69 69 NW 9 15 30.11 1020 10 16 0.00 0.00
8:56 am 08:56 Sunny 62 16.7 48 8.9 60 60 NNW 10 17 30.11 1020 10 16 0.00 0.00
9:56 am 09:56 Sunny 69 20.6 48 8.9 47 47 N 15 24 30.12 1020 10 16 0.00 0.00
10:56 am 10:56 Sunny 75 23.9 48 8.9 39 39 NNE 17 28 30.13 1020 10 16 0.00 0.00
11:56 am 11:56 Sunny 77 25 48 8.9 36 36 NE 16 26 30.14 1021 10 16 0.00 0.00
12:56 pm 12:56 Sunny 77 25 47 8.3 35 35 NE 12 19 30.14 1021 10 16 0.00 0.00
1:56 pm 13:56 Sunny 77 25 46 7.8 33 33 NE 12 19 30.13 1020 10 16 0.00 0.00
2:56 pm 14:56 Sunny 78 25.6 46 7.8 32 32 NE 15 24 30.13 1020 10 16 0.00 0.00
3:56 pm 15:56 Sunny 79 26.1 46 7.8 31 31 NE 12 19 30.14 1021 10 16 0.00 0.00
4:56 pm 16:56 Sunny 78 25.6 43 6.1 29 29 NE 10 17 30.13 1020 10 16 0.00 0.00
5:16 pm 17:16 Mostly Sunny 77 25 45 7 32 32 NNE 16 26 30.03 1017 10 16 0.00 0.00
5:56 pm 17:56 Mostly Sunny 77 25 44 6.7 31 31 NNE 13 20 30.14 1021 10 16 0.00 0.00
6:56 pm 18:56 Sunny 74 23.3 46 7.8 37 37 N 8 13 30.14 1021 10 16 0.00 0.00
7:56 pm 19:56 Sunny 70 21.1 46 7.8 42 42 ENE 9 15 30.13 1020 10 16 0.00 0.00
8:56 pm 20:56 Clear 66 18.9 46 7.8 49 49 ENE 8 13 30.11 1020 10 16 0.00 0.00
9:56 pm 21:56 Clear 60 15.6 45 7.2 58 58 NE 8 13 30.13 1020 10 16 0.00 0.00
10:56 pm 22:56 Clear 60 15.6 44 6.7 56 56 NNE 7 11 30.14 1021 10 16 0.00 0.00
11:56 pm 23:56 Clear 58 14.4 44 6.7 60 60 ENE 6 9 30.14 1021 10 16 0.00 0.00

Powered by AerisWeather